FW9253 Weather Reports


Display with metric or nautical units.
time (UTC)temp
F
wind
direction
speed
MPH
gust
MPH
rain 1hr
in
rain 24hr
in
rain mn
in
humidity
%
barometer
mb
20260504033837 52 0 0.0 0.0 0.00 0.00 0.00 36 1013.7
20260504032937 50 0 0.0 0.0 0.00 0.00 0.00 39 1013.7
20260504032037 47 0 0.0 0.0 0.00 0.00 0.00 40 1013.7
20260504030237 45 0 0.0 0.0 0.00 0.00 0.00 47 1013.7
20260504025337 44 0 0.0 0.0 0.00 0.00 0.00 47 1013.7
20260504024437 44 0 0.0 0.0 0.00 0.00 0.00 49 1013.7
20260504023537 43 0 0.0 0.0 0.00 0.00 0.00 50 1013.7
20260504022637 41 0 0.0 0.0 0.00 0.00 0.00 50 1013.7
20260504021737 40 0 0.0 0.0 0.00 0.00 0.00 50 1013.7
20260504020837 40 0 0.0 0.0 0.00 0.00 0.00 50 1013.7
20260504015937 40 0 0.0 0.0 0.00 0.00 0.00 51 1013.7
20260504015037 40 0 0.0 0.0 0.00 0.00 0.00 49 1013.7
20260504014137 40 0 0.0 0.0 0.00 0.00 0.00 47 1013.7
20260504013237 40 0 0.0 0.0 0.00 0.00 0.00 46 1013.7
20260504012336 40 0 0.0 0.0 0.00 0.00 0.00 44 1014.7
20260504011437 40 0 0.0 0.0 0.00 0.00 0.00 43 1014.7
20260504010537 41 0 0.0 0.0 0.00 0.00 0.00 42 1013.7
20260504005636 41 0 0.0 0.0 0.00 0.00 0.00 39 1013.7
20260504004737 42 0 0.0 0.0 0.00 0.00 0.00 38 1013.7
20260504003836 43 0 0.0 0.0 0.00 0.00 0.00 35 1014.7
20260504002936 44 0 0.0 0.0 0.00 0.00 0.00 32 1014.7
20260504002036 45 0 0.0 0.0 0.00 0.00 0.00 31 1012.7
20260504001136 45 0 0.0 0.0 0.00 0.00 0.00 30 1013.7
20260503235336 47 248 0.0 1.0 0.00 0.00 0.00 29 1013.7
20260503234436 47 244 0.0 4.0 0.00 0.00 0.00 29 1013.7
20260503233536 47 0 0.0 0.0 0.00 0.00 0.00 29 1013.7
20260503231736 49 231 0.0 4.0 0.00 0.00 0.00 28 1013.7
20260503230836 49 0 0.0 0.0 0.00 0.00 0.00 28 1013.7
20260503225936 49 0 0.0 0.0 0.00 0.00 0.00 30 1013.7
20260503225036 49 0 0.0 0.0 0.00 0.00 0.00 30 1013.7
20260503223236 48 237 0.0 1.0 0.00 0.00 0.00 33 1013.7
20260503222336 48 0 0.0 0.0 0.00 0.00 0.00 37 1013.7
20260503220536 46 0 0.0 0.0 0.00 0.00 0.00 42 1014.7
20260503215636 45 0 0.0 0.0 0.00 0.00 0.00 46 1013.7
20260503214736 44 0 0.0 0.0 0.00 0.00 0.00 48 1013.7
20260503213836 43 0 0.0 0.0 0.00 0.00 0.00 51 1013.7
20260503212935 42 0 0.0 0.0 0.00 0.00 0.00 53 1013.7
20260503212036 41 0 0.0 0.0 0.00 0.00 0.00 54 1013.7
20260503211135 40 0 0.0 0.0 0.00 0.00 0.00 55 1013.7
20260503205350 40 0 0.0 0.0 0.00 0.00 0.00 56 1013.7
20260503204450 40 132 0.0 4.0 0.00 0.00 0.00 56 1013.7
20260503203550 39 0 0.0 0.0 0.00 0.00 0.00 57 1013.7
20260503201750 39 0 0.0 0.0 0.00 0.00 0.00 55 1013.7
20260503200850 40 0 0.0 0.0 0.00 0.00 0.00 55 1013.7
20260503194149 40 0 0.0 0.0 0.00 0.00 0.00 53 1013.7
20260503193250 40 112 0.0 1.0 0.00 0.00 0.00 52 1013.7
20260503192349 41 0 0.0 0.0 0.00 0.00 0.00 52 1013.7
20260503190549 42 0 0.0 0.0 0.00 0.00 0.00 49 1014.7
20260503184750 42 0 0.0 0.0 0.00 0.00 0.00 48 1014.7
20260503183849 43 0 0.0 0.0 0.00 0.00 0.00 47 1014.7
20260503182049 44 181 0.0 2.0 0.00 0.00 0.00 43 1014.7
20260503181149 45 0 0.0 0.0 0.00 0.00 0.00 41 1014.7
20260503180250 46 0 0.0 0.0 0.00 0.00 0.00 41 1014.7
20260503175349 46 0 0.0 0.0 0.00 0.00 0.00 40 1014.7
20260503174449 47 0 0.0 0.0 0.00 0.00 0.00 39 1014.7
20260503173549 47 0 0.0 0.0 0.00 0.00 0.00 39 1014.7
20260503172649 47 0 0.0 0.0 0.00 0.00 0.00 40 1014.7
20260503171750 48 0 0.0 0.0 0.00 0.00 0.00 39 1014.7
20260503170849 48 0 0.0 0.0 0.00 0.00 0.00 38 1015.7
20260503150249 57 0 0.0 0.0 0.00 0.00 0.00 6 1015.7
20260503130548 60 0 0.0 0.0 0.00 0.00 0.00 6 1016.7
20260503090247 59 306 0.0 5.0 0.00 0.00 0.00 6 1017.7
20260503080847 62 225 0.0 2.0 0.00 0.00 0.00 5 1018.8
20260503071447 60 32 1.0 3.0 0.00 0.00 0.00 6 1019.8
20260503070546 63 55 3.0 8.0 0.00 0.00 0.00 5 1019.8
20260503054446 60 292 0.0 4.0 0.00 0.00 0.00 27 1019.8
20260503052646 58 0 0.0 0.0 0.00 0.00 0.00 29 1018.8
20260503050846 56 0 0.0 0.0 0.00 0.00 0.00 31 1018.8
20260503045948 56 0 0.0 0.0 0.00 0.00 0.00 35 1018.8
20260503045046 54 0 0.0 0.0 0.00 0.00 0.00 37 1017.7
20260503044146 54 314 0.0 3.0 0.00 0.00 0.00 37 1017.7
20260503043246 53 314 1.0 3.0 0.00 0.00 0.00 37 1017.7
20260503042346 52 0 0.0 0.0 0.00 0.00 0.00 48 1017.7
20260503041446 50 0 0.0 0.0 0.00 0.00 0.00 66 1017.7
20260503040546 48 0 0.0 0.0 0.00 0.00 0.00 77 1017.7
20260503035646 46 0 0.0 0.0 0.00 0.00 0.00 81 1017.7